Simultaneous Nadir Overpasses (SNOs) Predictions

Prediction of SNOs between AQUA and METOP-A Satellite Orbit:

Table of predicted SNOs for the next 14.0 days since TLE Epoch: 4/29/2016
Index Date (AQUA) Time (AQUA) Lat,Lon (AQUA) SZA (AQUA ) Date (METOP-A) Time (METOP-A) Lat,Lon (METOP-A) SZA (METOP-A ) Distance(km) Time Diff (sec)
1 04/30/2016 02:57:36 73.52, 130.57 58.60 04/30/2016 02:56:26 73.46, 129.02 58.60 49.45 70
2 04/30/2016 03:47:09 -73.89, -62.60 121.02 04/30/2016 03:46:59 -73.90, -62.63 121.01 0.92 10
3 04/30/2016 04:36:38 73.99, 104.83 59.08 04/30/2016 04:37:37 73.99, 104.92 59.07 2.99 59
4 05/02/2016 22:31:54 73.85,-163.70 58.11 05/02/2016 22:30:41 73.87,-163.62 58.13 3.32 73
5 05/02/2016 23:21:21 -73.91, 3.81 121.84 05/02/2016 23:21:22 -73.91, 3.80 121.84 0.23 1
6 05/03/2016 00:10:49 73.95, 171.35 58.20 05/03/2016 00:12:01 73.95, 171.23 58.19 3.50 72
7 05/05/2016 18:06:04 73.83, -97.21 57.28 05/05/2016 18:05:04 73.83, -97.31 57.29 3.27 60
8 05/05/2016 18:55:32 -73.94, 70.19 122.62 05/05/2016 18:55:44 -73.92, 70.23 122.65 2.90 12
9 05/05/2016 19:45:07 74.35,-123.12 57.81 05/05/2016 19:46:15 74.35,-121.36 57.76 52.76 68
10 05/08/2016 13:40:16 73.88, -30.86 56.55 05/08/2016 13:39:26 73.88, -30.78 56.56 2.58 50
11 05/08/2016 14:29:43 -73.93, 136.66 123.40 05/08/2016 14:30:07 -73.92, 136.64 123.41 1.32 24
12 05/11/2016 09:14:27 73.88, 35.58 55.83 05/11/2016 09:13:49 73.88, 35.63 55.83 1.64 38
13 05/11/2016 10:03:54 -73.94,-156.90 124.13 05/11/2016 10:04:30 -73.92,-156.95 124.15 2.17 36




NCC Satellite Simultaneous Nadir Overpasses (SNOs) Prediction Service
